GW6731 Weather Reports


time (UTC)temp
F
wind
direction
speed
knots
gust
knots
rain 1hr
in
rain 24hr
in
rain mn
in
humidity
%
barometer
mb
20260507213032 66 327 6.1 13.0 0.00 0.00 0.00 33 1011.8
20260507211531 66 338 7.0 13.0 0.00 0.00 0.00 34 1012.1
20260507210035 65 295 7.0 13.9 0.00 0.00 0.00 36 1012.1
20260507204535 64 307 7.8 12.2 0.00 0.00 0.00 36 1012.1
20260507203040 66 276 4.3 14.8 0.00 0.00 0.00 34 1012.2
20260507201538 64 317 1.7 10.4 0.00 0.00 0.00 35 1012.3
20260507200044 63 274 3.5 12.2 0.00 0.00 0.00 36 1012.3
20260507194536 63 309 5.2 13.9 0.00 0.00 0.00 35 1012.3
20260507193035 63 327 4.3 11.3 0.00 0.00 0.00 35 1012.2
20260507191534 63 337 7.0 12.2 0.00 0.00 0.00 35 1012.1
20260507190034 63 300 6.1 13.0 0.00 0.00 0.00 35 1012.0
20260507184534 63 291 4.3 11.3 0.00 0.00 0.00 35 1012.0
20260507183038 63 257 2.6 13.9 0.00 0.00 0.00 39 1012.0
20260507181534 63 310 7.8 12.2 0.00 0.00 0.00 38 1012.3
20260507180040 65 312 5.2 14.8 0.00 0.00 0.00 38 1012.2
20260507174536 63 315 6.1 13.0 0.00 0.00 0.00 38 1012.3
20260507173039 64 272 6.1 13.0 0.00 0.00 0.00 40 1012.3
20260507171542 63 290 7.8 15.6 0.00 0.00 0.00 40 1012.5
20260507170037 62 32 7.0 15.6 0.00 0.00 0.00 42 1012.7
20260507164546 61 341 4.3 13.0 0.00 0.00 0.00 42 1012.7
20260507163032 61 320 6.1 13.0 0.00 0.00 0.00 43 1012.6
20260507161540 60 341 7.0 12.2 0.00 0.00 0.00 43 1012.5
20260507160038 60 292 7.0 13.0 0.00 0.00 0.00 43 1012.5
20260507154535 60 319 6.1 13.0 0.00 0.00 0.00 45 1012.4
20260507153030 59 32 4.3 8.7 0.00 0.00 0.00 45 1012.3
20260507151539 58 304 2.6 8.7 0.00 0.00 0.00 47 1012.3
20260507150030 54 0 0.9 3.5 0.00 0.00 0.00 53 1012.4
20260507144534 53 0 0.0 1.7 0.00 0.00 0.00 52 1012.2
20260507143031 52 257 0.0 6.1 0.00 0.00 0.00 53 1012.2
20260507141533 51 288 0.9 4.3 0.00 0.00 0.00 55 1012.2
20260507140031 50 325 3.5 8.7 0.00 0.00 0.00 54 1012.2
20260507134539 51 315 5.2 10.4 0.00 0.00 0.00 53 1012.1
20260507133030 52 352 6.1 10.4 0.00 0.00 0.00 50 1011.9
20260507131536 50 305 2.6 8.7 0.00 0.00 0.00 56 1011.8
20260507130029 49 329 3.5 8.7 0.00 0.00 0.00 57 1011.8
20260507124544 47 330 2.6 5.2 0.00 0.00 0.00 60 1011.6
20260507123031 44 323 3.5 7.0 0.00 0.00 0.00 66 1011.5
20260507121533 42 322 0.9 3.5 0.00 0.00 0.00 67 1011.5
20260507120032 42 350 1.7 3.5 0.00 0.00 0.00 70 1011.3
20260507114535 39 304 0.0 2.6 0.00 0.00 0.00 71 1011.3
20260507113033 40 342 0.0 1.7 0.00 0.00 0.00 69 1011.2
20260507111537 41 305 0.0 0.9 0.00 0.00 0.00 68 1011.0
20260507110046 43 338 0.0 2.6 0.00 0.00 0.00 64 1011.0
20260507104533 44 338 0.0 0.9 0.00 0.00 0.00 64 1010.9
20260507103033 45 0 0.0 0.9 0.00 0.00 0.00 64 1010.7
20260507101540 45 338 0.0 1.7 0.00 0.00 0.00 64 1010.4
20260507100037 44 9 0.0 0.9 0.00 0.00 0.00 64 1010.4
20260507094538 44 9 0.0 2.6 0.00 0.00 0.00 64 1010.3
20260507093030 45 325 0.9 2.6 0.00 0.00 0.00 62 1010.0
20260507091538 44 0 0.0 4.3 0.00 0.00 0.00 64 1010.0
20260507090039 45 44 0.9 3.5 0.00 0.00 0.00 60 1009.8
20260507084538 43 207 0.9 3.5 0.00 0.00 0.00 65 1009.8
20260507083037 41 9 1.7 3.5 0.00 0.00 0.00 65 1009.4
20260507081532 42 303 0.9 2.6 0.00 0.00 0.00 62 1008.9
20260507080036 43 87 0.9 3.5 0.00 0.00 0.00 61 1009.1
20260507074542 41 0 0.0 1.7 0.00 0.00 0.00 62 1009.1
20260507073032 45 340 0.9 2.6 0.00 0.00 0.00 56 1009.5
20260507071533 47 40 0.9 2.6 0.00 0.00 0.00 51 1009.1
20260507070036 50 53 4.3 13.9 0.00 0.00 0.00 54 1008.9
20260507064537 51 65 7.0 14.8 0.00 0.00 0.00 53 1008.6
20260507063035 51 93 10.4 17.4 0.00 0.00 0.00 52 1008.6
20260507061534 50 98 10.4 16.5 0.00 0.00 0.00 50 1008.3
20260507060039 51 57 12.2 20.0 0.00 0.00 0.00 44 1008.2
20260507054532 53 85 10.4 19.1 0.00 0.00 0.00 36 1008.4
20260507053032 55 71 14.8 20.9 0.00 0.00 0.00 33 1008.6
20260507051539 55 78 12.2 18.2 0.00 0.00 0.00 33 1008.5
20260507050041 55 90 10.4 16.5 0.00 0.00 0.00 34 1008.3
20260507044534 54 72 10.4 15.6 0.00 0.00 0.00 36 1008.3
20260507043032 50 98 0.0 1.7 0.00 0.00 0.00 58 1008.1
20260507041533 51 315 0.9 3.5 0.00 0.00 0.00 56 1008.0
20260507040034 50 16 1.7 3.5 0.00 0.00 0.00 56 1007.9
20260507034552 52 20 1.7 3.5 0.00 0.00 0.00 52 1007.9
20260507033033 52 355 0.9 2.6 0.00 0.00 0.00 51 1007.8
20260507031535 55 200 0.0 1.7 0.00 0.00 0.00 46 1008.0
20260507030036 55 0 0.0 0.0 0.00 0.00 0.00 44 1007.9
20260507024548 53 163 0.9 2.6 0.00 0.00 0.00 43 1008.3
20260507023031 53 321 0.0 2.6 0.00 0.00 0.00 45 1008.0
20260507021532 55 329 0.9 1.7 0.00 0.00 0.00 43 1007.7
20260507020035 56 327 0.9 2.6 0.00 0.00 0.00 43 1007.7
20260507014540 59 327 0.0 1.7 0.00 0.00 0.00 36 1007.6
20260507013034 62 309 0.9 3.5 0.00 0.00 0.00 29 1007.7
20260507011540 64 324 2.6 5.2 0.00 0.00 0.00 27 1007.8
20260507010032 63 247 0.0 7.8 0.00 0.00 0.00 26 1007.8
20260507004531 65 312 2.6 7.8 0.00 0.00 0.00 24 1008.0
20260507003034 66 290 4.3 10.4 0.00 0.00 0.00 24 1008.1
20260507001540 67 304 3.5 8.7 0.00 0.00 0.00 23 1008.2
20260507000033 68 327 6.1 13.0 0.00 0.00 0.00 24 1008.3
20260506234532 67 345 4.3 11.3 0.00 0.00 0.00 23 1008.3
20260506233033 66 325 5.2 11.3 0.00 0.00 0.00 24 1008.3
20260506231533 67 321 4.3 9.6 0.00 0.00 0.00 23 1008.5
20260506230042 67 307 6.1 12.2 0.00 0.00 0.00 23 1008.5
20260506224534 67 245 4.3 13.0 0.00 0.00 0.00 24 1008.6
20260506223032 68 299 2.6 7.0 0.00 0.00 0.00 25 1008.7
20260506221537 68 188 4.3 9.6 0.00 0.00 0.00 26 1009.0
20260506220040 67 198 3.5 8.7 0.00 0.00 0.00 24 1009.2
20260506214531 67 242 2.6 8.7 0.00 0.00 0.00 27 1009.3